QPF
0.00 0.00 0.00 0.00 0.00 0.00 0.00 0.00 0.00 0.00 0.00 0.00 0.00 0.01 0.01 0.01 0.01 0.02 0.02 0.01 0.01 0.02 0.03 0.02 0.01 0.01 0.00 0.00 0.01 0.01 0.02 0.03 0.04 0.05 0.04 0.02 0.03 0.04 0.06 0.05 0.04 0.03 0.04 0.05
0.00 0.00 0.00 0.00 0.00 0.00 0.00 0.00 0.00 0.00 0.00 0.00 0.00 0.00 0.00 0.00 0.01 0.01 0.01 0.01 0.01 0.01 0.01 0.02 0.01 0.01 0.00 0.00 0.01 0.01 0.02 0.02 0.02 0.02 0.02 0.02 0.08 0.11 0.09 0.06 0.04 0.04 0.04 0.06
0.00 0.00 0.00 0.00 0.00 0.00 0.00 0.00 0.00 0.00 0.00 0.00 0.00 0.00 0.00 0.01 0.00 0.00 0.00 0.00 0.00 0.01 0.01 0.01 0.01 0.01 0.00 0.01 0.01 0.01 0.01 0.01 0.01 0.01 0.01 0.03 0.09 0.13 0.08 0.04 0.03 0.03 0.02 0.03
0.00 0.00 0.00 0.00 0.00 0.00 0.00 0.00 0.00 0.00 0.00 0.00 0.00 0.00 0.00 0.01 0.00 0.00 0.00 0.00 0.00 0.00 0.00 0.01 0.00 0.00 0.00 0.00 0.01 0.01 0.01 0.01 0.01 0.01 0.01 0.01 0.01 0.02 0.02 0.03 0.02 0.02 0.02 0.03
0.00 0.00 0.00 0.00 0.00 0.00 0.00 0.00 0.00 0.00 0.00 0.00 0.00 0.01 0.02 0.02 0.00 0.00 0.00 0.00 0.00 0.00 0.00 0.00 0.00 0.00 0.00 0.01 0.01 0.01 0.02 0.01 0.01 0.01 0.02 0.02 0.02 0.02 0.02 0.02 0.02 0.01 0.01 0.02
0.00 0.00 0.00 0.00 0.00 0.00 0.00 0.00 0.00 0.00 0.00 0.00 0.01 0.02 0.03 0.02 0.01 0.01 0.00 0.00 0.00 0.00 0.00 0.00 0.00 0.01 0.01 0.01 0.01 0.02 0.02 0.01 0.01 0.02 0.03 0.04 0.04 0.03 0.02 0.02 0.01 0.01 0.01 0.02
0.00 0.00 0.00 0.00 0.00 0.00 0.00 0.01 0.00 0.00 0.00 0.00 0.01 0.02 0.02 0.01 0.02 0.00 0.00 0.00 0.00 0.01 0.01 0.01 0.01 0.01 0.01 0.01 0.01 0.01 0.01 0.01 0.01 0.02 0.03 0.03 0.03 0.03 0.03 0.03 0.02 0.02 0.02 0.02
0.01 0.01 0.01 0.01 0.01 0.01 0.00 0.00 0.00 0.00 0.00 0.00 0.00 0.00 0.00 0.00 0.00 0.01 0.01 0.01 0.01 0.01 0.01 0.01 0.02 0.01 0.01 0.01 0.01 0.01 0.01 0.01 0.01 0.02 0.02 0.03 0.05 0.05 0.05 0.04 0.03 0.03 0.02 0.02
0.01 0.01 0.01 0.00 0.01 0.01 0.00 0.00 0.00 0.01 0.00 0.00 0.01 0.01 0.01 0.01 0.02 0.03 0.02 0.02 0.01 0.01 0.01 0.01 0.02 0.02 0.01 0.01 0.01 0.01 0.01 0.01 0.01 0.01 0.01 0.03 0.08 0.10 0.08 0.05 0.04 0.03 0.02 0.02
0.02 0.01 0.00 0.01 0.01 0.01 0.01 0.00 0.00 0.01 0.01 0.01 0.01 0.02 0.03 0.03 0.03 0.04 0.03 0.02 0.02 0.02 0.02 0.01 0.02 0.02 0.02 0.02 0.02 0.01 0.01 0.01 0.01 0.01 0.02 0.02 0.02 0.03 0.07 0.05 0.03 0.03 0.02 0.02
0.03 0.03 0.03 0.02 0.02 0.02 0.02 0.01 0.01 0.01 0.01 0.01 0.02 0.02 0.02 0.03 0.04 0.04 0.03 0.03 0.03 0.03 0.02 0.02 0.02 0.02 0.02 0.02 0.02 0.02 0.02 0.01 0.01 0.01 0.01 0.01 0.01 0.01 0.02 0.02 0.02 0.02 0.02 0.02
0.03 0.04 0.05 0.03 0.02 0.02 0.02 0.01 0.01 0.01 0.02 0.02 0.02 0.05 0.03 0.02 0.03 0.05 0.05 0.04 0.04 0.04 0.03 0.03 0.03 0.03 0.03 0.03 0.02 0.01 0.02 0.01 0.01 0.01 0.01 0.01 0.01 0.01 0.01 0.01 0.01 0.01 0.01 0.01
0.02 0.02 0.03 0.03 0.02 0.01 0.02 0.01 0.01 0.01 0.02 0.02 0.01 0.04 0.04 0.02 0.03 0.05 0.05 0.04 0.05 0.05 0.04 0.03 0.03 0.02 0.02 0.02 0.01 0.01 0.01 0.01 0.01 0.01 0.01 0.01 0.01 0.01 0.01 0.00 0.00 0.00 0.00 0.01
0.02 0.02 0.03 0.02 0.01 0.01 0.02 0.02 0.03 0.04 0.04 0.02 0.02 0.04 0.08 0.06 0.07 0.07 0.07 0.06 0.05 0.04 0.03 0.04 0.04 0.03 0.02 0.02 0.01 0.01 0.02 0.02 0.01 0.01 0.02 0.02 0.02 0.01 0.00 0.00 0.00 0.00 0.00 0.00
0.01 0.01 0.01 0.01 0.01 0.01 0.01 0.02 0.05 0.05 0.07 0.03 0.04 0.09 0.13 0.15 0.14 0.12 0.10 0.08 0.05 0.04 0.04 0.04 0.05 0.04 0.03 0.02 0.02 0.02 0.02 0.02 0.01 0.02 0.02 0.02 0.02 0.01 0.01 0.00 0.00 0.00 0.00 0.00
0.02 0.01 0.02 0.01 0.01 0.01 0.01 0.01 0.03 0.04 0.03 0.02 0.04 0.10 0.15 0.15 0.11 0.09 0.07 0.06 0.06 0.04 0.04 0.03 0.04 0.04 0.03 0.02 0.02 0.02 0.02 0.02 0.02 0.01 0.01 0.01 0.01 0.01 0.01 0.00 0.00 0.00 0.00 0.00
0.04 0.02 0.01 0.01 0.01 0.01 0.01 0.01 0.03 0.04 0.02 0.02 0.05 0.11 0.13 0.09 0.06 0.04 0.05 0.06 0.06 0.06 0.05 0.04 0.03 0.04 0.04 0.03 0.03 0.04 0.04 0.04 0.03 0.02 0.01 0.01 0.01 0.02 0.02 0.02 0.01 0.00 0.00 0.00
0.03 0.02 0.00 0.00 0.01 0.02 0.01 0.01 0.01 0.01 0.01 0.02 0.04 0.07 0.07 0.07 0.06 0.04 0.04 0.05 0.05 0.04 0.04 0.04 0.03 0.03 0.04 0.04 0.05 0.05 0.05 0.05 0.05 0.05 0.05 0.04 0.03 0.02 0.02 0.02 0.02 0.01 0.00 0.00
0.02 0.01 0.01 0.01 0.01 0.01 0.01 0.01 0.01 0.01 0.01 0.02 0.03 0.05 0.06 0.07 0.09 0.05 0.03 0.03 0.04 0.04 0.04 0.03 0.03 0.02 0.03 0.03 0.04 0.04 0.03 0.03 0.04 0.04 0.04 0.04 0.04 0.03 0.02 0.02 0.02 0.01 0.01 0.00
0.01 0.01 0.01 0.01 0.01 0.01 0.01 0.01 0.01 0.02 0.01 0.02 0.02 0.02 0.03 0.04 0.05 0.04 0.03 0.03 0.04 0.04 0.03 0.03 0.03 0.03 0.02 0.02 0.02 0.02 0.02 0.02 0.02 0.03 0.03 0.03 0.03 0.04 0.03 0.03 0.02 0.01 0.01 0.01
0.01 0.01 0.01 0.02 0.02 0.02 0.01 0.01 0.02 0.02 0.02 0.03 0.03 0.03 0.03 0.03 0.03 0.04 0.05 0.06 0.05 0.04 0.03 0.02 0.03 0.03 0.03 0.02 0.02 0.02 0.02 0.02 0.02 0.02 0.02 0.02 0.02 0.02 0.02 0.02 0.02 0.02 0.01 0.01
0.02 0.03 0.03 0.03 0.03 0.04 0.03 0.03 0.02 0.03 0.04 0.04 0.04 0.03 0.03 0.02 0.02 0.04 0.06 0.08 0.07 0.05 0.03 0.03 0.03 0.03 0.03 0.03 0.03 0.03 0.03 0.02 0.02 0.02 0.02 0.02 0.02 0.02 0.01 0.01 0.01 0.01 0.01 0.01
0.03 0.04 0.04 0.03 0.05 0.05 0.04 0.04 0.03 0.04 0.04 0.04 0.05 0.05 0.03 0.02 0.03 0.05 0.06 0.07 0.07 0.06 0.04 0.03 0.03 0.03 0.03 0.03 0.03 0.04 0.04 0.04 0.03 0.02 0.01 0.01 0.02 0.02 0.02 0.01 0.01 0.01 0.01 0.01
0.04 0.04 0.05 0.06 0.08 0.08 0.06 0.05 0.06 0.06 0.05 0.05 0.05 0.05 0.05 0.05 0.04 0.04 0.04 0.04 0.04 0.05 0.04 0.04 0.03 0.03 0.04 0.04 0.03 0.03 0.03 0.04 0.03 0.02 0.02 0.01 0.01 0.01 0.01 0.01 0.01 0.01 0.01 0.01
0.06 0.05 0.05 0.07 0.10 0.13 0.11 0.08 0.08 0.09 0.08 0.07 0.06 0.06 0.05 0.06 0.07 0.05 0.03 0.02 0.03 0.04 0.03 0.04 0.03 0.03 0.03 0.03 0.03 0.03 0.03 0.02 0.02 0.01 0.01 0.02 0.02 0.01 0.01 0.01 0.01 0.01 0.02 0.02
0.06 0.06 0.05 0.05 0.08 0.13 0.13 0.10 0.08 0.10 0.09 0.08 0.07 0.05 0.05 0.05 0.06 0.06 0.05 0.04 0.03 0.03 0.03 0.02 0.02 0.02 0.02 0.02 0.02 0.02 0.03 0.03 0.02 0.02 0.02 0.02 0.01 0.02 0.02 0.02 0.01 0.01 0.01 0.02
0.07 0.06 0.05 0.05 0.06 0.08 0.09 0.09 0.09 0.09 0.07 0.07 0.06 0.05 0.04 0.05 0.05 0.05 0.05 0.04 0.03 0.03 0.03 0.02 0.02 0.02 0.02 0.02 0.02 0.02 0.02 0.02 0.02 0.02 0.02 0.02 0.02 0.02 0.02 0.01 0.02 0.01 0.01 0.01
MSLP
1012.72 1012.82 1012.86 1012.83 1012.73 1012.55 1012.29 1011.97 1011.59 1011.19 1010.81 1010.49 1010.29 1010.25 1010.38 1010.71 1011.20 1011.84 1012.57 1013.35 1014.12 1014.84 1015.48 1016.05 1016.53 1016.94 1017.32 1017.67 1018.02 1018.37 1018.74 1019.11 1019.47 1019.81 1020.12 1020.38 1020.60 1020.78 1020.91 1021.01 1021.08 1021.12 1021.15 1021.17
1013.60 1013.53 1013.36 1013.09 1012.73 1012.30 1011.81 1011.30 1010.78 1010.30 1009.88 1009.57 1009.40 1009.39 1009.57 1009.92 1010.44 1011.09 1011.84 1012.64 1013.45 1014.22 1014.94 1015.59 1016.16 1016.66 1017.12 1017.53 1017.93 1018.33 1018.72 1019.12 1019.52 1019.90 1020.27 1020.60 1020.90 1021.15 1021.36 1021.53 1021.65 1021.73 1021.79 1021.83
1014.44 1014.21 1013.84 1013.35 1012.76 1012.11 1011.42 1010.74 1010.11 1009.54 1009.09 1008.76 1008.60 1008.61 1008.79 1009.15 1009.66 1010.31 1011.05 1011.86 1012.70 1013.52 1014.31 1015.04 1015.71 1016.31 1016.85 1017.35 1017.81 1018.25 1018.69 1019.12 1019.55 1019.97 1020.39 1020.78 1021.15 1021.47 1021.75 1021.97 1022.13 1022.25 1022.32 1022.37
1015.01 1014.64 1014.11 1013.44 1012.68 1011.86 1011.03 1010.23 1009.51 1008.89 1008.41 1008.07 1007.91 1007.91 1008.08 1008.41 1008.90 1009.52 1010.24 1011.05 1011.90 1012.77 1013.62 1014.44 1015.21 1015.92 1016.56 1017.14 1017.67 1018.17 1018.65 1019.12 1019.58 1020.04 1020.50 1020.94 1021.36 1021.73 1022.06 1022.32 1022.52 1022.66 1022.74 1022.78
1015.12 1014.63 1013.98 1013.20 1012.33 1011.41 1010.51 1009.66 1008.91 1008.28 1007.80 1007.47 1007.30 1007.29 1007.44 1007.74 1008.19 1008.76 1009.46 1010.25 1011.11 1012.01 1012.93 1013.84 1014.70 1015.52 1016.26 1016.94 1017.55 1018.11 1018.64 1019.14 1019.63 1020.12 1020.60 1021.07 1021.52 1021.94 1022.30 1022.59 1022.81 1022.96 1023.04 1023.08
1014.69 1014.12 1013.39 1012.55 1011.63 1010.70 1009.79 1008.97 1008.25 1007.66 1007.22 1006.92 1006.77 1006.77 1006.90 1007.17 1007.57 1008.10 1008.75 1009.52 1010.38 1011.31 1012.29 1013.27 1014.23 1015.15 1016.00 1016.76 1017.46 1018.08 1018.65 1019.18 1019.69 1020.20 1020.70 1021.18 1021.65 1022.09 1022.47 1022.78 1023.02 1023.18 1023.27 1023.32
1013.79 1013.15 1012.38 1011.52 1010.62 1009.72 1008.88 1008.14 1007.51 1007.01 1006.65 1006.42 1006.32 1006.34 1006.48 1006.72 1007.08 1007.57 1008.19 1008.93 1009.78 1010.73 1011.74 1012.79 1013.83 1014.84 1015.78 1016.63 1017.39 1018.07 1018.68 1019.24 1019.76 1020.27 1020.77 1021.26 1021.74 1022.19 1022.59 1022.92 1023.18 1023.36 1023.47 1023.53
1012.60 1011.90 1011.10 1010.26 1009.41 1008.59 1007.86 1007.24 1006.74 1006.38 1006.14 1006.01 1005.98 1006.05 1006.20 1006.43 1006.77 1007.22 1007.80 1008.50 1009.34 1010.30 1011.33 1012.42 1013.53 1014.60 1015.61 1016.53 1017.35 1018.07 1018.70 1019.27 1019.80 1020.30 1020.80 1021.29 1021.77 1022.22 1022.64 1023.01 1023.30 1023.52 1023.67 1023.75
1011.38 1010.62 1009.81 1008.99 1008.20 1007.48 1006.88 1006.40 1006.05 1005.83 1005.73 1005.72 1005.78 1005.90 1006.08 1006.33 1006.65 1007.07 1007.61 1008.28 1009.09 1010.03 1011.07 1012.18 1013.31 1014.43 1015.48 1016.44 1017.30 1018.04 1018.69 1019.27 1019.79 1020.28 1020.76 1021.25 1021.73 1022.20 1022.64 1023.04 1023.38 1023.65 1023.86 1023.99
1010.38 1009.56 1008.73 1007.93 1007.19 1006.57 1006.07 1005.73 1005.53 1005.45 1005.48 1005.59 1005.74 1005.93 1006.15 1006.41 1006.72 1007.11 1007.62 1008.25 1009.03 1009.93 1010.95 1012.05 1013.18 1014.31 1015.38 1016.35 1017.22 1017.98 1018.63 1019.19 1019.70 1020.18 1020.64 1021.12 1021.60 1022.09 1022.57 1023.02 1023.42 1023.76 1024.03 1024.23
1009.77 1008.90 1008.04 1007.24 1006.53 1005.97 1005.57 1005.33 1005.24 1005.28 1005.42 1005.63 1005.87 1006.13 1006.38 1006.66 1006.97 1007.34 1007.81 1008.39 1009.12 1009.98 1010.96 1012.02 1013.12 1014.23 1015.28 1016.25 1017.11 1017.85 1018.49 1019.04 1019.53 1019.99 1020.44 1020.91 1021.41 1021.91 1022.43 1022.93 1023.39 1023.81 1024.15 1024.41
1009.59 1008.67 1007.78 1006.96 1006.27 1005.74 1005.38 1005.21 1005.20 1005.32 1005.55 1005.84 1006.14 1006.45 1006.75 1007.04 1007.35 1007.70 1008.13 1008.67 1009.34 1010.14 1011.06 1012.06 1013.11 1014.17 1015.18 1016.12 1016.95 1017.67 1018.29 1018.82 1019.29 1019.73 1020.17 1020.64 1021.14 1021.67 1022.22 1022.77 1023.30 1023.78 1024.18 1024.51
1009.73 1008.77 1007.84 1007.00 1006.30 1005.77 1005.44 1005.30 1005.33 1005.51 1005.79 1006.13 1006.50 1006.85 1007.18 1007.49 1007.80 1008.14 1008.54 1009.04 1009.65 1010.38 1011.22 1012.15 1013.13 1014.12 1015.08 1015.97 1016.77 1017.45 1018.04 1018.55 1019.00 1019.43 1019.86 1020.33 1020.84 1021.38 1021.96 1022.55 1023.13 1023.66 1024.12 1024.50
1009.96 1008.98 1008.03 1007.18 1006.46 1005.93 1005.60 1005.48 1005.53 1005.74 1006.06 1006.45 1006.85 1007.25 1007.61 1007.95 1008.27 1008.61 1008.99 1009.45 1010.00 1010.66 1011.43 1012.27 1013.18 1014.09 1014.99 1015.82 1016.57 1017.22 1017.79 1018.27 1018.71 1019.13 1019.56 1020.02 1020.53 1021.09 1021.68 1022.29 1022.90 1023.46 1023.95 1024.35
1010.07 1009.09 1008.15 1007.30 1006.59 1006.06 1005.73 1005.62 1005.69 1005.93 1006.28 1006.70 1007.15 1007.59 1008.00 1008.38 1008.73 1009.07 1009.45 1009.87 1010.38 1010.98 1011.67 1012.43 1013.25 1014.09 1014.91 1015.69 1016.39 1017.01 1017.55 1018.02 1018.45 1018.87 1019.29 1019.75 1020.26 1020.81 1021.41 1022.02 1022.63 1023.19 1023.69 1024.10
1009.88 1008.94 1008.03 1007.21 1006.53 1006.03 1005.73 1005.63 1005.74 1006.01 1006.40 1006.87 1007.37 1007.86 1008.33 1008.75 1009.14 1009.52 1009.89 1010.31 1010.78 1011.32 1011.94 1012.63 1013.37 1014.13 1014.88 1015.60 1016.25 1016.84 1017.36 1017.83 1018.25 1018.66 1019.09 1019.54 1020.04 1020.58 1021.16 1021.75 1022.34 1022.89 1023.37 1023.76
1009.35 1008.48 1007.64 1006.88 1006.26 1005.81 1005.56 1005.51 1005.66 1005.97 1006.41 1006.94 1007.50 1008.06 1008.59 1009.08 1009.52 1009.93 1010.33 1010.74 1011.19 1011.69 1012.25 1012.87 1013.54 1014.22 1014.91 1015.57 1016.18 1016.74 1017.25 1017.70 1018.13 1018.54 1018.96 1019.41 1019.89 1020.41 1020.95 1021.51 1022.05 1022.56 1023.00 1023.36
1008.55 1007.78 1007.03 1006.37 1005.84 1005.47 1005.29 1005.31 1005.51 1005.89 1006.38 1006.97 1007.60 1008.23 1008.83 1009.38 1009.88 1010.34 1010.77 1011.19 1011.63 1012.10 1012.61 1013.17 1013.76 1014.38 1015.00 1015.61 1016.18 1016.72 1017.21 1017.66 1018.08 1018.49 1018.91 1019.34 1019.80 1020.28 1020.78 1021.29 1021.77 1022.22 1022.61 1022.92
1007.66 1007.01 1006.38 1005.84 1005.41 1005.14 1005.04 1005.13 1005.40 1005.83 1006.39 1007.03 1007.71 1008.40 1009.07 1009.68 1010.24 1010.74 1011.21 1011.65 1012.08 1012.53 1013.01 1013.52 1014.05 1014.61 1015.17 1015.73 1016.26 1016.77 1017.24 1017.68 1018.10 1018.50 1018.91 1019.32 1019.74 1020.18 1020.63 1021.08 1021.50 1021.88 1022.21 1022.47
1006.90 1006.37 1005.88 1005.45 1005.13 1004.96 1004.94 1005.10 1005.42 1005.90 1006.49 1007.17 1007.90 1008.63 1009.34 1010.00 1010.61 1011.15 1011.65 1012.11 1012.55 1012.99 1013.44 1013.90 1014.39 1014.89 1015.41 1015.91 1016.41 1016.88 1017.33 1017.75 1018.15 1018.54 1018.93 1019.31 1019.70 1020.09 1020.48 1020.86 1021.22 1021.54 1021.80 1022.00
1006.44 1006.03 1005.65 1005.34 1005.12 1005.03 1005.08 1005.28 1005.64 1006.13 1006.74 1007.43 1008.17 1008.92 1009.65 1010.34 1010.97 1011.55 1012.07 1012.55 1013.00 1013.43 1013.86 1014.30 1014.75 1015.20 1015.67 1016.13 1016.58 1017.02 1017.44 1017.83 1018.21 1018.58 1018.94 1019.29 1019.64 1019.98 1020.32 1020.63 1020.93 1021.18 1021.39 1021.55
1006.32 1006.02 1005.74 1005.52 1005.39 1005.35 1005.45 1005.67 1006.03 1006.52 1007.11 1007.78 1008.50 1009.24 1009.96 1010.66 1011.30 1011.90 1012.44 1012.93 1013.39 1013.82 1014.24 1014.66 1015.08 1015.50 1015.92 1016.34 1016.75 1017.15 1017.53 1017.89 1018.24 1018.57 1018.90 1019.21 1019.52 1019.82 1020.11 1020.38 1020.62 1020.82 1020.99 1021.11
1006.50 1006.29 1006.10 1005.95 1005.87 1005.88 1005.99 1006.21 1006.55 1007.01 1007.55 1008.18 1008.85 1009.55 1010.25 1010.92 1011.56 1012.16 1012.71 1013.21 1013.67 1014.11 1014.53 1014.93 1015.33 1015.72 1016.11 1016.49 1016.86 1017.21 1017.55 1017.88 1018.19 1018.49 1018.78 1019.07 1019.34 1019.60 1019.85 1020.08 1020.29 1020.47 1020.60 1020.71
1006.84 1006.70 1006.57 1006.48 1006.45 1006.47 1006.59 1006.80 1007.10 1007.51 1007.99 1008.56 1009.17 1009.81 1010.46 1011.10 1011.72 1012.30 1012.85 1013.35 1013.82 1014.26 1014.68 1015.08 1015.46 1015.83 1016.18 1016.53 1016.86 1017.17 1017.48 1017.77 1018.04 1018.31 1018.57 1018.83 1019.08 1019.32 1019.55 1019.77 1019.96 1020.12 1020.26 1020.36
1007.17 1007.09 1007.02 1006.98 1006.97 1007.02 1007.13 1007.32 1007.59 1007.94 1008.37 1008.86 1009.41 1009.99 1010.58 1011.17 1011.76 1012.32 1012.85 1013.35 1013.82 1014.26 1014.67 1015.06 1015.43 1015.78 1016.11 1016.43 1016.72 1017.01 1017.27 1017.53 1017.78 1018.02 1018.26 1018.50 1018.74 1018.98 1019.21 1019.43 1019.63 1019.82 1019.97 1020.09
1007.37 1007.35 1007.33 1007.33 1007.35 1007.42 1007.54 1007.72 1007.97 1008.28 1008.66 1009.09 1009.57 1010.09 1010.62 1011.16 1011.70 1012.22 1012.73 1013.21 1013.67 1014.10 1014.51 1014.89 1015.24 1015.58 1015.89 1016.17 1016.44 1016.70 1016.94 1017.17 1017.40 1017.63 1017.86 1018.10 1018.35 1018.60 1018.85 1019.10 1019.34 1019.55 1019.74 1019.90
1007.39 1007.41 1007.44 1007.49 1007.56 1007.67 1007.81 1008.00 1008.25 1008.54 1008.88 1009.27 1009.70 1010.15 1010.63 1011.11 1011.59 1012.07 1012.54 1012.99 1013.42 1013.83 1014.22 1014.58 1014.92 1015.23 1015.52 1015.79 1016.04 1016.27 1016.50 1016.72 1016.94 1017.17 1017.41 1017.67 1017.94 1018.22 1018.51 1018.80 1019.08 1019.34 1019.58 1019.79
Thickness
5802 5817 5822 5816 5815 5820 5817 5818 5811 5820 5824 5830 5838 5838 5838 5838 5836 5833 5829 5827 5825 5822 5819 5816 5813 5810 5807 5803 5799 5795 5789 5784 5779 5776 5773 5769 5765 5762 5759 5756 5753 5750 5747 5745
5786 5804 5813 5811 5816 5818 5819 5822 5821 5825 5827 5844 5844 5841 5834 5832 5829 5825 5821 5820 5820 5818 5815 5812 5809 5806 5803 5799 5796 5792 5786 5781 5777 5773 5768 5764 5761 5757 5754 5751 5748 5744 5741 5738
5769 5791 5795 5789 5809 5815 5818 5825 5823 5817 5824 5836 5830 5827 5827 5826 5825 5822 5820 5818 5816 5814 5812 5809 5807 5804 5799 5795 5792 5787 5782 5778 5774 5769 5764 5760 5757 5753 5749 5745 5741 5737 5734 5731
5764 5770 5754 5794 5827 5825 5819 5823 5830 5831 5831 5831 5829 5830 5832 5830 5824 5820 5819 5816 5814 5812 5809 5807 5805 5802 5798 5793 5788 5783 5778 5773 5770 5765 5760 5756 5752 5748 5744 5740 5736 5732 5728 5725
5755 5754 5765 5793 5814 5819 5810 5808 5827 5825 5824 5826 5828 5824 5819 5825 5825 5820 5817 5815 5813 5812 5809 5805 5801 5798 5793 5788 5784 5778 5773 5768 5765 5761 5755 5750 5746 5742 5739 5735 5730 5726 5722 5719
5748 5745 5748 5781 5811 5825 5811 5790 5821 5822 5817 5817 5814 5797 5800 5817 5819 5816 5815 5813 5810 5809 5805 5799 5796 5793 5787 5782 5778 5773 5769 5765 5761 5756 5751 5746 5741 5737 5734 5730 5725 5721 5716 5713
5741 5744 5762 5795 5811 5810 5775 5782 5814 5818 5815 5812 5806 5804 5808 5813 5811 5810 5809 5807 5806 5802 5797 5794 5792 5788 5781 5777 5772 5770 5766 5760 5756 5751 5747 5742 5737 5732 5728 5724 5719 5715 5710 5706
5738 5738 5750 5794 5798 5785 5785 5805 5809 5810 5811 5808 5805 5807 5806 5805 5803 5802 5799 5799 5798 5793 5790 5789 5787 5782 5776 5771 5770 5766 5761 5755 5750 5745 5742 5737 5731 5727 5724 5719 5713 5708 5704 5700
5746 5750 5771 5787 5786 5789 5796 5796 5800 5803 5804 5803 5798 5795 5796 5795 5794 5793 5792 5791 5790 5786 5783 5782 5780 5777 5771 5768 5766 5760 5754 5748 5744 5739 5735 5731 5726 5722 5718 5713 5709 5705 5700 5696
5746 5753 5766 5775 5780 5784 5788 5790 5794 5797 5797 5797 5792 5789 5787 5786 5785 5785 5784 5784 5783 5779 5776 5774 5774 5772 5768 5764 5760 5754 5748 5742 5738 5733 5729 5724 5721 5717 5713 5708 5705 5702 5698 5693
5737 5747 5755 5761 5768 5774 5778 5783 5786 5788 5788 5787 5785 5782 5780 5778 5777 5777 5777 5777 5775 5772 5769 5768 5767 5765 5762 5758 5754 5747 5742 5737 5732 5727 5722 5717 5712 5706 5705 5700 5699 5697 5695 5691
5728 5741 5745 5749 5761 5768 5768 5770 5773 5775 5776 5779 5778 5773 5773 5771 5771 5770 5769 5769 5767 5765 5763 5762 5760 5757 5754 5751 5747 5741 5736 5731 5727 5722 5717 5712 5706 5699 5693 5692 5690 5689 5687 5684
5734 5740 5746 5750 5756 5761 5761 5763 5766 5767 5767 5767 5769 5768 5765 5764 5764 5763 5762 5762 5760 5758 5757 5755 5752 5749 5747 5744 5740 5736 5731 5727 5723 5718 5713 5709 5705 5698 5690 5684 5681 5680 5678 5676
5732 5734 5734 5741 5747 5753 5755 5757 5758 5759 5760 5760 5761 5761 5759 5758 5757 5755 5754 5755 5755 5752 5750 5748 5745 5742 5740 5737 5733 5730 5727 5722 5719 5715 5711 5707 5702 5697 5692 5686 5680 5674 5669 5666
5723 5727 5729 5736 5741 5743 5746 5747 5746 5747 5748 5749 5752 5752 5751 5749 5747 5746 5747 5748 5748 5744 5742 5740 5737 5735 5734 5731 5727 5724 5721 5718 5715 5712 5708 5704 5700 5695 5690 5685 5679 5673 5666 5660
5712 5719 5723 5726 5728 5731 5734 5736 5736 5737 5739 5740 5742 5743 5743 5742 5741 5740 5740 5740 5737 5734 5734 5732 5730 5728 5727 5725 5721 5718 5715 5711 5708 5706 5703 5699 5695 5691 5687 5682 5677 5671 5665 5659
5698 5703 5710 5713 5718 5721 5724 5727 5729 5730 5732 5733 5734 5735 5734 5733 5731 5730 5730 5732 5730 5728 5727 5725 5723 5723 5722 5719 5716 5713 5709 5705 5701 5700 5697 5694 5690 5686 5682 5678 5673 5668 5662 5657
5697 5702 5707 5710 5711 5712 5715 5719 5723 5723 5724 5726 5726 5725 5723 5721 5720 5720 5721 5722 5721 5720 5719 5719 5717 5715 5714 5712 5710 5707 5704 5700 5696 5694 5691 5688 5684 5680 5677 5672 5668 5663 5657 5651
5692 5696 5701 5704 5706 5707 5709 5712 5715 5717 5719 5718 5716 5714 5714 5714 5712 5712 5713 5711 5709 5708 5710 5712 5708 5708 5706 5705 5702 5700 5697 5693 5690 5687 5684 5679 5676 5674 5671 5666 5661 5656 5652 5646
5686 5690 5693 5696 5699 5700 5702 5705 5708 5709 5710 5711 5709 5707 5706 5705 5705 5704 5704 5702 5703 5704 5704 5703 5702 5700 5699 5697 5694 5693 5691 5688 5684 5680 5676 5674 5670 5667 5663 5659 5655 5651 5646 5641
5677 5680 5684 5686 5689 5692 5695 5698 5699 5699 5701 5702 5700 5698 5697 5698 5698 5698 5696 5694 5696 5697 5696 5693 5694 5693 5691 5688 5685 5686 5683 5681 5677 5673 5669 5666 5663 5659 5656 5652 5648 5644 5639 5635
5667 5671 5675 5678 5680 5682 5686 5689 5691 5691 5692 5692 5692 5692 5691 5690 5690 5690 5689 5688 5688 5687 5687 5687 5686 5683 5682 5679 5679 5677 5675 5672 5669 5665 5662 5658 5655 5651 5647 5644 5640 5636 5632 5627
5658 5662 5665 5669 5672 5674 5677 5680 5682 5683 5684 5684 5684 5683 5683 5683 5683 5682 5680 5681 5682 5678 5679 5678 5675 5673 5671 5672 5672 5669 5666 5663 5660 5657 5654 5651 5648 5644 5640 5636 5632 5628 5624 5619
5649 5652 5656 5660 5663 5664 5666 5669 5672 5674 5675 5676 5676 5676 5676 5676 5676 5677 5676 5672 5671 5670 5670 5666 5664 5663 5661 5663 5662 5660 5658 5655 5652 5650 5647 5644 5641 5637 5633 5629 5625 5621 5617 5613
5641 5644 5648 5651 5652 5656 5658 5661 5662 5664 5665 5666 5668 5669 5670 5671 5669 5669 5668 5666 5662 5661 5661 5657 5655 5654 5655 5656 5655 5653 5650 5647 5645 5642 5639 5635 5632 5629 5625 5622 5618 5614 5610 5605
5634 5637 5640 5643 5646 5648 5651 5654 5655 5656 5657 5658 5658 5660 5662 5663 5662 5662 5660 5658 5657 5654 5654 5651 5649 5647 5649 5649 5647 5644 5641 5639 5637 5634 5631 5627 5624 5620 5617 5613 5609 5606 5602 5597
5628 5630 5632 5635 5639 5643 5646 5647 5648 5649 5650 5650 5649 5651 5652 5653 5653 5653 5652 5651 5649 5648 5647 5646 5645 5643 5641 5640 5637 5635 5633 5631 5628 5625 5622 5619 5615 5611 5608 5604 5601 5597 5592 5588